Glonass Operational
NORAD ID: 28916
Int'l Code: 2005-050B
Perigee: 19,090.3 km
Apogee: 19,183.3 km
Inclination: 64.9°
Period: 675.7 min
Semi major axis: 25,507.8 km
Launch date: December 25, 2005
Source: Commonwealth of Independent States (former USSR) (CIS)
SV: 713
Two Line Element Set (TLE):
1 28916U 05050B 10243.14647830 .00000015 00000-0 10000-3 0 2161
2 28916 064.8852 149.2707 0018222 338.3691 021.6078 02.13104960 36446
More details about COSMOS 2418 (GLONASS)